EW0184 Weather Reports


Display with metric or nautical units.
time (UTC)temp
F
wind
direction
speed
MPH
gust
MPH
rain 1hr
in
rain 24hr
in
rain mn
in
humidity
%
barometer
mb
20260509072524 56 264 0.0 1.0 0.00 0.00 0.00 47 1006.1
20260509072033 56 264 0.0 1.0 0.00 0.00 0.00 47 1006.1
20260509071535 56 100 0.0 1.0 0.00 0.00 0.00 46 1006.1
20260509071023 56 101 0.0 1.0 0.00 0.00 0.00 47 1006.1
20260509070534 56 100 0.0 0.0 0.00 0.00 0.00 47 1006.1
20260509070030 56 100 0.0 0.0 0.00 0.00 0.00 47 1006.1
20260509065525 56 100 0.0 0.0 0.00 0.00 0.00 47 1006.0
20260509065035 56 100 0.0 0.0 0.00 0.00 0.00 46 1006.1
20260509064527 56 101 0.0 0.0 0.00 0.00 0.00 45 1006.1
20260509064036 57 101 0.0 0.0 0.00 0.00 0.00 44 1006.0
20260509063530 57 100 0.0 0.0 0.00 0.00 0.00 44 1006.0
20260509063024 57 101 0.0 0.0 0.00 0.00 0.00 45 1006.1
20260509062535 57 100 0.0 0.0 0.00 0.00 0.00 44 1006.2
20260509062031 58 100 0.0 0.0 0.00 0.00 0.00 44 1006.1
20260509061525 58 101 0.0 0.0 0.00 0.00 0.00 43 1006.1
20260509061025 58 101 0.0 0.0 0.00 0.00 0.00 43 1006.1
20260509060532 58 101 0.0 0.0 0.00 0.00 0.00 43 1006.2
20260509060027 59 100 0.0 0.0 0.00 0.00 0.00 42 1006.2
20260509055539 59 100 0.0 0.0 0.00 0.00 0.00 41 1006.3
20260509055030 59 101 0.0 0.0 0.00 0.00 0.00 41 1006.3
20260509054534 60 100 0.0 0.0 0.00 0.00 0.00 40 1006.3
20260509054028 60 100 0.0 0.0 0.00 0.00 0.00 38 1006.3
20260509053521 61 101 0.0 0.0 0.00 0.00 0.00 37 1006.3
20260509053051 61 101 0.0 0.0 0.00 0.00 0.00 37 1006.3
20260509052528 62 100 0.0 0.0 0.00 0.00 0.00 36 1006.4
20260509052023 62 100 0.0 0.0 0.00 0.00 0.00 33 1006.4
20260509051542 62 100 0.0 0.0 0.00 0.00 0.00 32 1006.4
20260509051029 62 101 0.0 0.0 0.00 0.00 0.00 32 1006.4
20260509050523 62 100 0.0 0.0 0.00 0.00 0.00 33 1006.5
20260509050034 62 101 0.0 0.0 0.00 0.00 0.00 34 1006.6
20260509045531 63 101 0.0 0.0 0.00 0.00 0.00 35 1006.6
20260509045024 62 100 0.0 0.0 0.00 0.00 0.00 34 1006.6
20260509044534 63 100 0.0 0.0 0.00 0.00 0.00 35 1006.5
20260509044029 63 101 0.0 0.0 0.00 0.00 0.00 36 1006.5
20260509043524 63 100 0.0 0.0 0.00 0.00 0.00 35 1006.4
20260509043036 63 359 0.0 1.0 0.00 0.00 0.00 35 1006.4
20260509042531 63 358 0.0 1.0 0.00 0.00 0.00 34 1006.3
20260509042026 64 359 0.0 0.0 0.00 0.00 0.00 34 1006.2
20260509041522 64 359 0.0 1.0 0.00 0.00 0.00 33 1006.2
20260509041031 64 358 0.0 0.0 0.00 0.00 0.00 33 1006.2
20260509040527 64 359 0.0 0.0 0.00 0.00 0.00 34 1006.1
20260509040029 64 358 0.0 0.0 0.00 0.00 0.00 34 1006.0
20260509035535 64 359 0.0 0.0 0.00 0.00 0.00 34 1006.0
20260509035031 64 359 0.0 0.0 0.00 0.00 0.00 33 1006.0
20260509034539 64 358 0.0 0.0 0.00 0.00 0.00 34 1005.9
20260509034028 64 359 0.0 0.0 0.00 0.00 0.00 34 1005.8
20260509033524 65 359 0.0 0.0 0.00 0.00 0.00 34 1005.7
20260509033035 65 358 0.0 0.0 0.00 0.00 0.00 34 1005.6
20260509032530 65 358 0.0 0.0 0.00 0.00 0.00 33 1005.6
20260509032023 66 358 0.0 0.0 0.00 0.00 0.00 31 1005.4
20260509031550 66 358 0.0 0.0 0.00 0.00 0.00 29 1005.4
20260509031030 67 358 0.0 0.0 0.00 0.00 0.00 28 1005.2
20260509030526 67 358 0.0 0.0 0.00 0.00 0.00 26 1005.2
20260509030057 68 358 0.0 0.0 0.00 0.00 0.00 27 1005.0
20260509025527 69 358 0.0 0.0 0.00 0.00 0.00 25 1005.0
20260509025023 69 359 0.0 0.0 0.00 0.00 0.00 24 1004.9
20260509024539 70 359 0.0 0.0 0.00 0.00 0.00 22 1004.8
20260509024029 70 358 0.0 0.0 0.00 0.00 0.00 20 1004.6
20260509023524 71 359 0.0 0.0 0.00 0.00 0.00 20 1004.5
20260509023037 71 358 0.0 0.0 0.00 0.00 0.00 19 1004.4
20260509022531 72 358 0.0 0.0 0.00 0.00 0.00 19 1004.3
20260509022026 73 358 0.0 0.0 0.00 0.00 0.00 19 1004.3
20260509021534 74 358 0.0 0.0 0.00 0.00 0.00 18 1004.3
20260509021033 74 359 0.0 0.0 0.00 0.00 0.00 16 1004.2
20260509020527 75 358 0.0 0.0 0.00 0.00 0.00 16 1004.2
20260509020035 76 359 0.0 0.0 0.00 0.00 0.00 16 1004.1
20260509015530 77 358 0.0 0.0 0.00 0.00 0.00 16 1004.1
20260509015025 78 358 0.0 0.0 0.00 0.00 0.00 16 1004.1
20260509014520 79 358 0.0 1.0 0.00 0.00 0.00 16 1004.0
20260509014033 80 358 0.0 1.0 0.00 0.00 0.00 16 1004.0
20260509013531 81 358 0.0 0.0 0.00 0.00 0.00 14 1003.9
20260509013022 83 358 0.0 1.0 0.00 0.00 0.00 13 1003.9
20260509012532 84 359 0.0 1.0 0.00 0.00 0.00 12 1003.9
20260509012031 84 358 0.0 1.0 0.00 0.00 0.00 11 1003.9
20260509011539 85 354 0.0 5.0 0.00 0.00 0.00 10 1003.8
20260509011031 85 40 1.0 5.0 0.00 0.00 0.00 10 1003.8
20260509010523 85 29 2.0 7.0 0.00 0.00 0.00 10 1003.9
20260509010032 85 46 2.0 7.0 0.00 0.00 0.00 10 1003.8
20260509005528 86 39 0.0 6.0 0.00 0.00 0.00 10 1003.8
20260509005024 86 19 2.0 6.0 0.00 0.00 0.00 9 1003.8
20260509004547 86 32 1.0 7.0 0.00 0.00 0.00 9 1003.8
20260509004028 86 21 2.0 7.0 0.00 0.00 0.00 9 1003.9
20260509003524 86 5 3.0 7.0 0.00 0.00 0.00 9 1003.8
20260509003041 87 29 1.0 4.0 0.00 0.00 0.00 9 1003.9
20260509002528 87 22 1.0 8.0 0.00 0.00 0.00 9 1003.9
20260509002028 87 349 2.0 8.0 0.00 0.00 0.00 8 1003.8
20260509001538 88 335 2.0 8.0 0.00 0.00 0.00 9 1003.9
20260509001030 88 34 3.0 8.0 0.00 0.00 0.00 9 1003.9
20260509000531 88 355 0.0 6.0 0.00 0.00 0.00 10 1003.9
20260509000027 88 32 2.0 6.0 0.00 0.00 0.00 8 1003.9
20260508235524 88 284 2.0 8.0 0.00 0.00 0.00 8 1004.0
20260508235034 88 345 3.0 8.0 0.00 0.00 0.00 9 1004.1
20260508234528 89 18 1.0 4.0 0.00 0.00 0.00 9 1004.0
20260508234025 89 356 1.0 4.0 0.00 0.00 0.00 9 1004.1
20260508233535 89 15 1.0 10.0 0.00 0.00 0.00 9 1004.0
20260508233031 88 304 2.0 10.0 0.00 0.00 0.00 9 1004.1
20260508232527 88 338 1.0 11.0 0.00 0.00 0.00 10 1004.1
20260508232022 89 41 3.0 15.0 0.00 0.00 0.00 8 1004.1
20260508231533 89 7 2.0 7.0 0.00 0.00 0.00 9 1004.2
20260508231026 89 148 2.0 7.0 0.00 0.00 0.00 8 1004.0
20260508230532 89 46 3.0 8.0 0.00 0.00 0.00 8 1004.1
20260508230026 89 53 3.0 8.0 0.00 0.00 0.00 9 1004.2
20260508225521 89 65 2.0 7.0 0.00 0.00 0.00 9 1004.2
20260508225032 90 37 2.0 7.0 0.00 0.00 0.00 9 1004.2
20260508224533 91 326 1.0 6.0 0.00 0.00 0.00 10 1004.1
20260508224024 90 269 0.0 3.0 0.00 0.00 0.00 10 1004.3
20260508223534 89 170 0.0 4.0 0.00 0.00 0.00 10 1004.3
20260508223042 89 284 0.0 4.0 0.00 0.00 0.00 9 1004.4
20260508222537 89 340 0.0 12.0 0.00 0.00 0.00 10 1004.4
20260508222033 89 11 2.0 11.0 0.00 0.00 0.00 9 1004.6
20260508221525 89 58 3.0 11.0 0.00 0.00 0.00 10 1004.7
20260508221023 89 77 1.0 10.0 0.00 0.00 0.00 10 1004.6
20260508220530 89 34 4.0 10.0 0.00 0.00 0.00 9 1004.7
20260508220027 89 103 2.0 8.0 0.00 0.00 0.00 9 1004.8
20260508215521 90 41 3.0 8.0 0.00 0.00 0.00 9 1004.8
20260508215032 90 34 1.0 8.0 0.00 0.00 0.00 10 1004.8
20260508214528 90 317 1.0 9.0 0.00 0.00 0.00 10 1004.8
20260508214024 90 321 2.0 9.0 0.00 0.00 0.00 10 1004.8
20260508213533 90 338 1.0 7.0 0.00 0.00 0.00 9 1004.9
20260508213029 90 306 2.0 9.0 0.00 0.00 0.00 10 1004.9
20260508212525 90 255 4.0 9.0 0.00 0.00 0.00 9 1005.0
20260508212037 90 39 0.0 5.0 0.00 0.00 0.00 9 1005.1
20260508211529 90 100 0.0 8.0 0.00 0.00 0.00 8 1005.2
20260508211026 91 124 0.0 2.0 0.00 0.00 0.00 10 1005.1
20260508210521 90 85 0.0 4.0 0.00 0.00 0.00 9 1005.4
20260508210033 91 210 0.0 4.0 0.00 0.00 0.00 9 1005.5
20260508205526 91 295 0.0 3.0 0.00 0.00 0.00 9 1005.5
20260508205023 91 159 1.0 3.0 0.00 0.00 0.00 9 1005.6
20260508204535 90 13 0.0 4.0 0.00 0.00 0.00 9 1005.7
20260508204028 90 20 0.0 5.0 0.00 0.00 0.00 10 1005.8
20260508203524 89 72 0.0 5.0 0.00 0.00 0.00 9 1005.8
20260508203041 89 245 2.0 0.0 0.00 0.00 0.00 10 1005.9
20260508202527 88 219 0.0 5.0 0.00 0.00 0.00 9 1005.9
20260508202023 88 15 2.0 5.0 0.00 0.00 0.00 9 1006.0
20260508201532 88 19 1.0 5.0 0.00 0.00 0.00 9 1006.1
20260508201032 89 108 1.0 6.0 0.00 0.00 0.00 9 1006.1
20260508200524 89 5 2.0 5.0 0.00 0.00 0.00 9 1006.2
20260508200035 89 204 0.0 4.0 0.00 0.00 0.00 11 1006.2
20260508195534 88 92 0.0 3.0 0.00 0.00 0.00 10 1006.3
20260508195026 88 23 1.0 5.0 0.00 0.00 0.00 10 1006.3
20260508194540 89 278 2.0 5.0 0.00 0.00 0.00 10 1006.3
20260508194031 88 335 0.0 9.0 0.00 0.00 0.00 11 1006.3
20260508193524 88 337 1.0 10.0 0.00 0.00 0.00 9 1006.4
20260508193034 88 40 3.0 11.0 0.00 0.00 0.00 10 1006.5
20260508192532 88 346 1.0 5.0 0.00 0.00 0.00 9 1006.6
20260508192026 88 86 0.0 4.0 0.00 0.00 0.00 10 1006.7
20260508191529 87 354 1.0 5.0 0.00 0.00 0.00 11 1006.8
20260508191033 87 116 1.0 5.0 0.00 0.00 0.00 9 1006.8
20260508190527 86 27 1.0 9.0 0.00 0.00 0.00 12 1007.0
20260508190026 86 356 3.0 8.0 0.00 0.00 0.00 12 1006.9
20260508185533 85 120 1.0 5.0 0.00 0.00 0.00 11 1007.0
20260508185028 86 336 1.0 5.0 0.00 0.00 0.00 12 1007.1
20260508184525 86 32 2.0 6.0 0.00 0.00 0.00 12 1007.2
20260508184033 86 98 1.0 5.0 0.00 0.00 0.00 13 1007.2
20260508183534 86 94 1.0 7.0 0.00 0.00 0.00 14 1007.2
20260508183032 86 3 3.0 7.0 0.00 0.00 0.00 12 1007.3
20260508182521 86 37 1.0 7.0 0.00 0.00 0.00 13 1007.4
20260508182032 86 53 2.0 7.0 0.00 0.00 0.00 12 1007.6
20260508181524 86 354 2.0 6.0 0.00 0.00 0.00 12 1007.6
20260508181021 85 294 1.0 7.0 0.00 0.00 0.00 13 1007.7
20260508180531 85 174 0.0 7.0 0.00 0.00 0.00 14 1007.8
20260508180027 84 1 1.0 10.0 0.00 0.00 0.00 14 1007.8
20260508175522 83 106 2.0 9.0 0.00 0.00 0.00 14 1008.0
20260508175032 83 243 0.0 4.0 0.00 0.00 0.00 15 1008.0
20260508174529 84 6 0.0 4.0 0.00 0.00 0.00 15 1008.1
20260508174045 83 199 0.0 2.0 0.00 0.00 0.00 15 1008.1
20260508173532 81 266 0.0 6.0 0.00 0.00 0.00 15 1008.2
20260508173026 81 23 1.0 5.0 0.00 0.00 0.00 15 1008.3
20260508172522 81 16 1.0 6.0 0.00 0.00 0.00 16 1008.3
20260508172032 81 243 0.0 6.0 0.00 0.00 0.00 18 1008.4
20260508171530 81 46 1.0 5.0 0.00 0.00 0.00 16 1008.4
20260508171024 81 46 1.0 6.0 0.00 0.00 0.00 17 1008.5
20260508170533 81 290 0.0 5.0 0.00 0.00 0.00 19 1008.5
20260508170030 79 360 0.0 4.0 0.00 0.00 0.00 18 1008.6
20260508165525 79 46 1.0 5.0 0.00 0.00 0.00 19 1008.8
20260508165038 79 29 1.0 5.0 0.00 0.00 0.00 19 1008.8
20260508164528 78 276 0.0 3.0 0.00 0.00 0.00 21 1008.8
20260508164022 77 52 0.0 4.0 0.00 0.00 0.00 22 1008.9
20260508163534 76 8 0.0 3.0 0.00 0.00 0.00 22 1008.9
20260508163034 76 68 0.0 4.0 0.00 0.00 0.00 24 1009.0
20260508162526 75 51 0.0 5.0 0.00 0.00 0.00 23 1009.0
20260508162036 74 44 1.0 7.0 0.00 0.00 0.00 24 1009.1
20260508161531 74 321 1.0 7.0 0.00 0.00 0.00 25 1009.1
20260508161025 73 308 2.0 6.0 0.00 0.00 0.00 25 1009.2
20260508160538 73 39 2.0 7.0 0.00 0.00 0.00 25 1009.3
20260508160030 73 33 0.0 4.0 0.00 0.00 0.00 26 1009.3
20260508155528 72 58 1.0 4.0 0.00 0.00 0.00 26 1009.3
20260508155036 71 335 1.0 4.0 0.00 0.00 0.00 27 1009.2
20260508154626 71 40 0.0 3.0 0.00 0.00 0.00 30 1009.3
20260508154022 70 359 0.0 3.0 0.00 0.00 0.00 30 1009.3
20260508153534 69 47 0.0 3.0 0.00 0.00 0.00 29 1009.4
20260508153034 69 88 0.0 3.0 0.00 0.00 0.00 31 1009.3
20260508152523 68 349 0.0 4.0 0.00 0.00 0.00 32 1009.4
20260508152033 68 25 0.0 4.0 0.00 0.00 0.00 34 1009.5
20260508151528 67 37 1.0 3.0 0.00 0.00 0.00 33 1009.6
20260508151022 66 326 0.0 4.0 0.00 0.00 0.00 33 1009.6
20260508150534 65 287 1.0 4.0 0.00 0.00 0.00 34 1009.7
20260508150049 64 19 0.0 3.0 0.00 0.00 0.00 35 1009.7
20260508145545 64 329 0.0 3.0 0.00 0.00 0.00 36 1009.7
20260508145023 63 18 0.0 5.0 0.00 0.00 0.00 37 1009.7
20260508144533 62 46 0.0 5.0 0.00 0.00 0.00 37 1009.8
20260508144027 61 295 0.0 2.0 0.00 0.00 0.00 40 1009.8
20260508143529 61 248 0.0 5.0 0.00 0.00 0.00 40 1009.8
20260508143047 60 56 0.0 5.0 0.00 0.00 0.00 41 1009.8
20260508142528 59 338 0.0 3.0 0.00 0.00 0.00 43 1009.8
20260508142025 59 285 0.0 3.0 0.00 0.00 0.00 44 1009.7
20260508141535 58 8 0.0 3.0 0.00 0.00 0.00 43 1009.8
20260508141031 58 359 0.0 3.0 0.00 0.00 0.00 44 1009.8
20260508140526 57 352 0.0 4.0 0.00 0.00 0.00 45 1009.8
20260508140026 56 333 0.0 3.0 0.00 0.00 0.00 45 1009.8
20260508135531 56 51 0.0 4.0 0.00 0.00 0.00 46 1009.7
20260508135025 55 23 0.0 5.0 0.00 0.00 0.00 46 1009.6
20260508134524 54 358 0.0 5.0 0.00 0.00 0.00 48 1009.6
20260508134033 54 356 0.0 3.0 0.00 0.00 0.00 49 1009.5
20260508133528 53 13 0.0 3.0 0.00 0.00 0.00 50 1009.4
20260508133025 52 18 1.0 4.0 0.00 0.00 0.00 53 1009.4
20260508132520 52 8 0.0 2.0 0.00 0.00 0.00 55 1009.4
20260508132031 51 6 0.0 1.0 0.00 0.00 0.00 55 1009.4
20260508131527 50 6 0.0 1.0 0.00 0.00 0.00 56 1009.3
20260508131038 50 5 0.0 2.0 0.00 0.00 0.00 58 1009.2
20260508130529 49 5 0.0 2.0 0.00 0.00 0.00 61 1009.1
20260508130026 48 15 0.0 1.0 0.00 0.00 0.00 63 1009.1
20260508125522 48 19 0.0 1.0 0.00 0.00 0.00 66 1009.0
20260508125033 47 19 0.0 0.0 0.00 0.00 0.00 67 1008.9
20260508124526 47 18 0.0 0.0 0.00 0.00 0.00 69 1008.9
20260508124022 47 19 0.0 1.0 0.00 0.00 0.00 70 1008.8
20260508123532 46 19 0.0 1.0 0.00 0.00 0.00 72 1008.7
20260508123033 46 27 0.0 1.0 0.00 0.00 0.00 74 1008.6
20260508122524 45 27 0.0 1.0 0.00 0.00 0.00 75 1008.5
20260508122034 45 30 0.0 1.0 0.00 0.00 0.00 75 1008.5
20260508121530 45 30 0.0 1.0 0.00 0.00 0.00 75 1008.4
20260508121023 45 127 0.0 0.0 0.00 0.00 0.00 75 1008.4
20260508120533 45 127 0.0 0.0 0.00 0.00 0.00 74 1008.3
20260508120030 45 127 0.0 0.0 0.00 0.00 0.00 74 1008.2
20260508115524 45 127 0.0 0.0 0.00 0.00 0.00 73 1008.2
20260508115034 46 127 0.0 0.0 0.00 0.00 0.00 72 1008.1
20260508114532 46 127 0.0 0.0 0.00 0.00 0.00 71 1008.2
20260508114026 46 127 0.0 0.0 0.00 0.00 0.00 70 1008.1
20260508113521 47 127 0.0 0.0 0.00 0.00 0.00 68 1008.1
20260508113028 47 127 0.0 0.0 0.00 0.00 0.00 67 1008.1
20260508112509 48 127 0.0 0.0 0.00 0.00 0.00 67 1008.2
20260508112031 48 127 0.0 0.0 0.00 0.00 0.00 67 1008.1
20260508111526 48 127 0.0 0.0 0.00 0.00 0.00 68 1008.1
20260508111023 48 127 0.0 0.0 0.00 0.00 0.00 68 1008.2
20260508110531 48 127 0.0 0.0 0.00 0.00 0.00 69 1008.1
20260508110027 48 127 0.0 0.0 0.00 0.00 0.00 69 1008.1
20260508105525 48 127 0.0 1.0 0.00 0.00 0.00 69 1008.2
20260508105033 47 135 0.0 0.0 0.00 0.00 0.00 70 1008.1
20260508104528 47 136 0.0 0.0 0.00 0.00 0.00 70 1008.1
20260508104023 47 135 0.0 1.0 0.00 0.00 0.00 71 1008.1
20260508103534 47 136 0.0 1.0 0.00 0.00 0.00 72 1008.2
20260508103027 47 135 0.0 0.0 0.00 0.00 0.00 72 1008.1
20260508102535 47 136 0.0 0.0 0.00 0.00 0.00 71 1008.0
20260508102030 47 135 0.0 0.0 0.00 0.00 0.00 71 1008.1
20260508101525 47 136 0.0 0.0 0.00 0.00 0.00 70 1008.0
20260508101022 47 136 0.0 0.0 0.00 0.00 0.00 69 1008.0
20260508100531 48 136 0.0 0.0 0.00 0.00 0.00 69 1007.9
20260508100028 48 135 0.0 0.0 0.00 0.00 0.00 68 1007.9
20260508095522 48 136 0.0 0.0 0.00 0.00 0.00 66 1007.9
20260508095032 48 135 0.0 1.0 0.00 0.00 0.00 66 1007.9
20260508094528 48 136 0.0 1.0 0.00 0.00 0.00 65 1007.9
20260508094024 49 135 0.0 0.0 0.00 0.00 0.00 64 1007.9
20260508093533 49 136 0.0 0.0 0.00 0.00 0.00 64 1007.9
20260508093034 49 135 0.0 0.0 0.00 0.00 0.00 63 1007.9
20260508092522 49 135 0.0 0.0 0.00 0.00 0.00 63 1008.0
20260508092032 50 135 0.0 1.0 0.00 0.00 0.00 62 1008.0
20260508091533 50 135 0.0 1.0 0.00 0.00 0.00 63 1008.0
20260508091025 50 135 0.0 1.0 0.00 0.00 0.00 63 1008.1
20260508090533 49 136 0.0 1.0 0.00 0.00 0.00 64 1008.1
20260508090035 49 149 0.0 1.0 0.00 0.00 0.00 65 1008.2
20260508085527 49 150 0.0 1.0 0.00 0.00 0.00 65 1008.3
20260508085033 49 255 0.0 0.0 0.00 0.00 0.00 65 1008.4
20260508084530 50 173 0.0 1.0 0.00 0.00 0.00 63 1008.3
20260508084041 50 174 0.0 1.0 0.00 0.00 0.00 62 1008.5
20260508083531 50 120 0.0 0.0 0.00 0.00 0.00 61 1008.3
20260508083027 50 120 0.0 0.0 0.00 0.00 0.00 61 1008.2
20260508082535 50 121 0.0 0.0 0.00 0.00 0.00 60 1008.3
20260508082035 50 120 0.0 0.0 0.00 0.00 0.00 60 1008.3
20260508081529 50 122 0.0 0.0 0.00 0.00 0.00 60 1008.2
20260508081022 51 122 0.0 0.0 0.00 0.00 0.00 60 1008.3
20260508080535 51 123 0.0 1.0 0.00 0.00 0.00 60 1008.4
20260508080049 51 123 0.0 1.0 0.00 0.00 0.00 60 1008.4
20260508075525 51 123 0.0 0.0 0.00 0.00 0.00 61 1008.4
20260508075035 51 123 0.0 0.0 0.00 0.00 0.00 60 1008.5
20260508074527 51 123 0.0 0.0 0.00 0.00 0.00 59 1008.5
20260508074023 51 123 0.0 0.0 0.00 0.00 0.00 59 1008.5
20260508073533 52 123 0.0 0.0 0.00 0.00 0.00 58 1008.6
20260508073029 52 123 0.0 0.0 0.00 0.00 0.00 57 1008.7